Temperature
29 29 29 28 29 30 29 29 28 28 28 29 29 29 29 29 28 28 27 26 25 24 23 22 22 21 20 20 19 18 18 17 17 16 16 15 15 14 14 13 13 12 12 11
28 29 29 29 30 30 29 29 29 29 29 29 29 29 29 29 28 28 27 26 25 24 23 22 21 21 20 19 19 18 18 17 17 16 16 15 15 14 14 13 13 12 12 12
27 28 28 27 28 28 29 29 29 28 29 29 29 29 28 28 28 28 27 26 25 24 23 22 21 21 20 20 19 19 18 18 17 16 16 15 15 14 14 13 13 13 12 12
27 27 25 26 27 28 28 29 29 29 29 29 29 28 28 28 27 27 27 26 26 25 24 23 22 21 20 20 19 19 18 18 17 16 16 15 15 15 14 14 13 13 12 12
27 26 26 26 26 25 25 26 28 28 28 28 28 28 27 27 27 27 26 26 25 25 24 23 22 22 21 20 19 18 18 17 17 16 16 16 15 15 15 14 14 13 12 11
26 26 25 25 24 24 24 23 25 26 26 27 27 27 26 26 26 26 26 25 25 25 24 24 23 22 21 20 19 18 18 17 17 17 16 16 15 15 15 14 14 13 12 11
26 26 25 24 25 25 23 21 24 25 25 26 26 25 25 25 25 24 24 24 24 24 24 23 23 22 21 20 19 19 18 17 17 16 16 16 15 15 15 14 13 13 12 12
25 24 22 23 23 22 21 23 23 24 24 24 24 24 23 23 23 23 23 23 23 23 22 22 22 21 21 20 19 18 18 17 17 16 16 15 15 15 14 14 13 12 12 12
25 24 21 20 20 21 22 22 22 23 23 22 22 22 21 20 20 20 20 20 20 20 20 20 20 20 19 19 18 17 17 17 16 16 16 15 15 14 14 13 12 12 12 12
24 22 21 21 21 22 22 22 21 21 21 21 20 20 19 19 18 18 18 18 18 18 18 19 18 18 18 17 17 16 16 16 16 15 15 15 14 14 13 13 12 12 12 12
23 22 21 21 21 21 21 21 20 20 20 19 19 19 18 18 17 17 17 17 17 17 17 17 17 17 16 16 15 15 15 15 15 14 14 14 14 13 13 13 13 12 12 12
23 22 22 20 20 21 20 20 19 19 18 18 18 17 17 17 16 16 16 16 16 16 16 16 16 15 15 15 14 14 14 14 14 14 14 14 13 13 13 13 13 13 12 12
21 21 21 20 20 20 20 19 19 18 17 17 16 16 16 16 16 15 15 15 15 14 14 14 14 14 14 14 13 13 13 13 13 13 13 13 13 13 13 13 13 13 12 12
20 20 20 19 19 18 18 18 18 17 16 16 16 15 15 15 15 15 14 14 14 14 13 13 13 13 12 12 12 12 12 12 12 12 12 12 13 13 12 13 12 12 12 12
19 19 18 17 17 17 17 17 16 16 16 15 15 15 15 14 14 14 14 13 13 13 13 12 12 12 11 11 11 11 11 11 11 12 12 12 12 12 12 12 12 12 12 11
18 17 17 16 16 16 16 16 15 15 15 15 15 14 14 14 14 13 13 13 12 12 11 11 11 10 10 10 10 10 10 11 11 11 11 12 12 12 12 12 12 11 11 11
17 17 16 16 15 15 15 15 15 15 14 14 14 14 13 13 13 12 12 12 11 11 11 11 10 10 10 9 9 9 9 10 10 10 11 11 11 11 11 11 11 11 11 11
15 15 14 14 14 14 14 14 14 14 14 13 13 13 12 12 12 11 11 11 11 11 10 10 10 9 9 9 9 8 8 9 9 9 10 10 10 10 10 10 10 10 10 10
15 14 14 14 14 14 14 14 13 13 13 12 12 12 12 11 11 11 11 10 10 10 10 10 9 9 9 8 8 8 8 8 8 8 9 9 9 9 9 9 9 9 9 10
14 14 14 14 14 14 13 13 13 12 12 12 12 11 11 11 11 10 10 10 10 10 9 9 9 9 8 8 7 7 7 7 7 7 8 8 8 8 8 9 9 9 9 9
14 14 14 14 13 13 13 12 12 12 12 12 11 11 11 11 10 10 10 10 10 9 9 9 8 8 7 7 6 6 6 6 6 6 6 7 7 7 7 8 8 8 8 8
13 13 13 13 13 12 12 12 12 12 11 11 11 11 11 10 11 11 10 10 10 9 9 8 8 7 7 6 5 5 5 5 5 5 5 5 6 6 6 7 7 7 7 7
13 12 12 12 12 12 11 11 11 11 11 11 11 11 11 11 11 11 10 10 9 9 8 7 7 6 6 5 5 4 4 4 4 4 4 4 5 5 5 5 5 6 5 5
12 12 11 11 11 11 11 11 11 11 11 11 11 11 11 11 11 10 10 9 9 8 7 6 6 5 5 4 3 3 3 3 3 3 3 3 3 4 4 4 4 4 4 4
11 11 11 11 11 11 11 11 11 11 11 11 11 11 11 10 10 10 9 8 7 7 6 5 4 4 3 3 2 2 2 2 2 2 2 2 2 2 2 3 3 3 3 4
11 11 11 11 11 11 11 11 11 11 11 11 11 10 10 10 9 9 8 7 6 5 5 4 3 3 2 1 1 1 1 1 1 1 1 1 1 1 2 2 2 2 3 3
11 11 11 11 11 11 11 11 10 10 10 10 10 9 9 9 8 7 6 5 5 4 3 2 2 1 1 1 0 0 0 -0 0 0 0 0 1 1 1 1 2 2 2 3
Wind_Speed
15 14 12 12 12 8 8 8 9 7 5 2 1 1 1 2 4 6 7 8 8 8 9 9 8 8 8 8 7 7 6 6 6 6 6 5 5 6 6 6 8 6 6 7
16 17 14 14 12 10 8 6 7 6 3 4 3 2 1 1 2 4 6 8 9 10 11 11 10 9 9 9 8 8 7 7 6 6 5 5 5 6 6 6 6 6 7 8
14 14 11 11 9 10 7 5 6 4 2 2 2 2 2 3 4 4 5 6 8 10 11 12 11 11 10 10 9 9 9 8 7 6 6 6 6 5 5 5 6 7 7 8
13 14 14 4 4 7 6 4 4 4 3 3 4 2 2 3 4 4 3 4 6 8 11 12 12 13 11 11 10 10 10 9 8 7 6 5 5 5 5 5 6 6 7 8
12 14 10 5 2 6 6 7 10 8 8 9 8 5 6 7 4 2 3 3 3 6 9 11 12 12 13 12 12 12 11 10 8 7 6 5 5 5 5 5 6 7 8 8
12 14 13 3 4 4 4 1 11 12 11 11 10 7 5 8 7 6 4 2 2 4 6 7 9 11 12 12 11 11 10 9 8 7 6 5 5 5 6 6 7 8 8 8
12 11 3 7 4 2 1 1 8 9 9 11 10 9 10 11 10 9 7 5 2 2 3 3 6 8 9 9 9 8 7 7 7 7 7 7 7 6 6 7 8 8 9 8
9 7 1 7 7 4 3 5 9 11 12 11 11 11 12 13 13 13 12 11 8 4 2 1 2 5 6 6 5 5 6 7 7 7 8 7 7 7 7 8 8 9 10 11
1 2 6 7 7 3 5 7 10 12 12 12 12 13 15 15 15 15 15 14 13 11 8 5 2 1 3 3 3 4 5 6 6 7 7 6 7 8 8 8 9 10 9 8
3 10 10 9 9 8 9 10 11 12 13 14 13 14 14 14 14 14 14 14 13 13 11 9 7 4 2 1 2 3 5 5 6 7 8 8 8 9 9 9 9 8 7 7
4 10 12 10 9 10 11 11 12 13 14 14 14 14 13 12 13 13 12 13 12 11 10 10 8 6 5 4 2 3 5 6 7 9 10 9 10 10 11 10 9 9 7 6
4 6 8 8 8 9 10 11 12 12 13 14 14 13 13 12 11 11 12 11 11 11 11 11 9 7 5 4 3 5 6 8 9 9 9 9 10 11 16 17 17 18 17 14
7 7 11 10 10 10 10 11 11 12 12 11 12 12 12 11 10 11 11 11 11 11 11 10 9 8 8 7 6 6 9 10 10 11 11 10 9 9 9 11 17 18 18 18
10 9 10 11 11 11 11 10 10 10 10 10 10 10 11 11 10 10 10 10 10 10 10 10 10 9 10 10 9 9 11 13 12 11 11 12 11 10 9 8 7 6 12 19
9 10 11 11 10 10 9 9 9 9 9 10 10 10 11 11 11 11 10 10 10 11 11 12 11 9 10 11 11 13 13 12 11 12 12 12 10 9 10 9 8 7 6 7
11 12 11 10 8 8 8 8 8 9 10 11 11 12 13 12 12 11 11 11 11 11 11 11 9 10 11 12 13 13 12 16 15 13 14 12 10 10 9 7 7 7 6 7
9 8 7 6 6 6 7 8 9 11 12 13 13 14 13 13 13 12 12 12 11 10 10 9 9 11 12 12 14 14 14 16 18 15 13 12 10 9 7 7 7 6 7 7
10 8 6 4 5 6 8 10 11 12 12 13 14 14 13 13 13 12 12 12 12 11 11 10 10 12 13 12 11 13 14 14 14 14 12 10 9 8 7 7 7 8 8 6
6 3 2 3 5 7 9 10 11 12 13 13 13 13 13 13 12 12 12 12 12 11 9 10 12 13 13 11 14 12 14 15 14 12 10 10 10 8 7 7 7 7 8 6
0 2 5 7 9 10 11 12 13 13 13 13 13 13 13 13 13 13 12 12 9 8 8 10 12 11 11 12 15 14 15 15 15 14 11 9 9 8 8 7 6 7 7 6
4 7 8 10 11 12 12 13 13 13 13 13 13 13 13 13 14 13 12 13 6 5 9 11 9 8 11 13 16 14 13 13 13 12 12 11 10 8 7 7 6 6 6 5
8 9 11 12 13 13 13 13 13 14 14 13 13 14 14 13 14 12 9 8 7 5 8 10 9 9 12 15 13 13 12 12 11 11 10 10 10 9 8 8 6 6 6 7
10 11 12 13 13 14 14 14 15 14 13 14 14 14 14 12 12 12 11 7 7 7 8 8 7 9 13 12 11 11 12 12 12 11 10 9 9 9 8 8 7 7 7 7
11 12 12 13 14 15 15 15 14 12 14 13 14 12 11 11 10 10 8 5 6 7 7 6 7 10 11 9 9 10 10 10 10 10 10 10 9 9 9 9 8 8 8 9
13 13 14 14 14 13 12 13 14 13 13 11 12 12 11 10 11 11 9 8 7 8 7 5 5 8 9 9 9 10 9 9 10 10 10 9 10 10 9 9 9 9 8 8
12 12 12 12 12 11 13 12 11 11 11 11 10 10 11 10 11 9 8 9 9 8 7 7 7 7 8 9 9 10 9 10 10 10 11 10 11 11 10 10 11 9 8 8
12 11 9 10 10 10 10 10 11 11 11 10 10 11 11 10 9 9 9 8 7 7 8 8 8 8 8 9 9 10 9 9 10 10 10 10 10 10 10 11 9 8 8 8
Wind_Direction
292 285 270 266 266 264 262 270 280 293 291 318 58 115 145 175 180 189 177 178 176 166 161 167 172 172 179 186 183 184 182 196 204 207 217 230 243 251 256 262 268 265 268 270
290 289 297 289 284 283 276 284 288 289 313 44 50 45 25 320 241 204 192 195 188 179 175 178 183 185 188 191 186 178 191 205 207 208 220 231 239 246 251 254 261 265 268 271
284 296 300 287 307 303 278 264 277 296 355 9 350 30 0 318 286 247 216 208 196 186 183 184 188 189 192 191 188 187 194 205 206 207 220 229 246 256 263 269 270 267 266 267
279 283 279 287 330 316 317 328 343 350 5 19 17 40 331 292 290 291 275 237 203 191 186 186 189 191 192 193 192 195 198 203 206 208 218 222 233 250 258 262 264 266 267 269
273 277 273 288 340 355 352 353 5 19 22 17 9 1 36 24 348 314 281 258 205 206 208 193 193 191 189 197 196 200 203 203 204 205 211 220 238 248 255 259 262 263 265 261
260 274 290 320 155 200 233 345 12 24 10 357 352 344 23 18 357 341 326 318 229 224 223 195 189 186 188 199 201 204 205 199 196 192 199 214 231 240 249 254 261 266 264 259
261 275 313 42 67 188 205 25 348 8 3 0 7 355 351 354 359 2 353 342 318 250 234 212 186 184 192 199 204 203 200 196 191 188 195 208 222 229 235 247 256 261 266 266
252 269 207 24 30 44 43 19 9 12 14 12 9 6 8 11 14 13 9 3 359 357 323 278 169 176 194 206 205 198 198 198 195 194 212 219 215 225 232 242 254 259 259 258
287 124 121 104 104 84 64 47 31 27 24 24 24 25 26 26 23 22 19 14 11 9 5 4 18 156 213 216 210 213 209 209 209 208 214 221 226 235 239 240 250 257 259 262
75 110 117 112 113 94 73 60 49 42 39 38 36 35 33 29 26 24 21 18 15 10 6 6 3 2 338 271 224 224 228 225 227 230 231 230 232 240 243 246 249 253 257 267
134 126 114 85 80 81 73 65 56 49 46 41 39 36 35 33 27 21 20 17 14 10 2 359 1 355 354 352 332 275 259 255 256 253 248 244 239 239 242 244 247 251 258 262
92 116 111 106 89 79 77 70 63 54 47 41 35 29 28 25 20 15 13 11 8 3 358 353 351 349 348 340 317 293 279 269 267 264 259 252 249 249 236 235 240 232 231 239
78 83 103 105 87 74 72 67 64 56 45 35 28 20 17 12 8 5 5 5 1 356 351 348 348 350 351 349 335 311 299 292 285 280 275 269 262 258 259 247 239 237 235 235
96 94 92 83 76 63 56 52 49 45 32 23 14 6 1 355 351 351 351 350 348 344 345 350 350 356 359 352 339 322 306 295 287 281 278 275 271 269 267 265 263 251 239 234
98 102 100 86 72 60 47 36 27 20 9 2 358 353 346 341 338 338 341 342 343 339 343 342 342 355 356 344 332 319 308 298 292 288 283 279 274 269 266 265 264 266 268 252
101 92 88 81 64 46 32 20 8 360 355 351 347 342 338 335 335 336 339 339 342 342 339 338 348 355 347 336 326 315 306 299 299 295 288 283 278 273 269 268 271 270 269 270
110 100 84 65 45 24 6 359 356 353 348 343 339 337 337 338 335 338 341 341 339 332 331 337 349 350 337 327 325 321 318 314 308 300 293 287 284 281 277 275 273 277 279 276
86 81 70 43 7 352 349 350 345 342 339 336 334 334 335 333 332 335 335 334 329 323 328 342 353 339 327 332 336 327 320 315 313 310 309 306 299 288 282 280 278 280 282 274
95 80 22 346 338 338 341 335 333 334 332 330 328 328 328 326 326 327 325 320 315 315 332 343 338 326 324 344 345 326 320 317 316 313 310 306 301 298 293 289 291 293 292 290
30 324 329 329 331 334 330 329 330 328 325 323 322 322 321 320 321 319 315 309 314 332 335 329 323 324 333 348 339 321 319 322 321 318 314 311 306 302 299 297 298 296 293 302
317 322 322 324 327 327 326 326 324 318 315 315 316 316 315 315 312 307 303 308 326 348 326 316 322 347 347 337 319 319 324 327 324 323 324 325 319 313 309 309 311 313 316 326
323 321 320 322 321 320 319 317 312 309 309 311 314 313 310 305 304 304 301 306 321 352 328 329 346 2 343 326 322 324 327 330 328 325 326 326 324 322 320 320 328 336 337 336
321 320 316 314 313 311 310 308 305 306 309 309 305 300 298 302 305 306 311 328 339 348 335 350 6 355 335 326 330 332 333 334 331 326 326 328 330 332 333 337 342 343 340 334
313 310 308 307 306 303 300 301 304 304 299 295 294 300 307 310 314 319 328 1 13 351 350 38 17 351 332 337 340 339 338 338 334 334 336 337 337 338 337 339 341 340 335 331
301 301 298 297 297 298 304 305 302 298 299 306 313 322 324 327 329 334 344 359 17 1 2 38 13 350 346 348 347 345 341 342 342 338 337 338 337 336 336 337 338 334 331 329
293 292 294 295 295 294 295 297 303 311 314 317 323 327 331 335 341 353 1 6 23 24 10 7 7 4 1 357 354 350 347 344 344 345 344 341 339 339 337 337 332 331 329 326
301 300 297 298 306 310 315 316 316 315 319 326 331 333 336 343 353 0 7 16 19 19 18 17 14 8 4 2 1 358 355 351 349 345 343 340 337 334 333 331 329 328 328 325
Height
1477 1474 1472 1473 1469 1466 1470 1473 1479 1477 1475 1472 1470 1471 1473 1476 1479 1482 1485 1488 1492 1495 1498 1501 1504 1506 1508 1510 1511 1511 1512 1512 1511 1511 1511 1510 1509 1508 1507 1506 1505 1503 1502 1500
1480 1469 1466 1467 1464 1463 1465 1466 1469 1470 1471 1467 1469 1471 1473 1475 1477 1480 1483 1486 1489 1492 1495 1497 1500 1502 1504 1505 1506 1507 1507 1507 1507 1507 1507 1506 1505 1504 1503 1501 1500 1499 1497 1495
1483 1471 1474 1479 1471 1469 1466 1464 1466 1471 1469 1466 1468 1470 1473 1475 1476 1477 1480 1482 1484 1487 1490 1493 1495 1497 1499 1500 1501 1501 1501 1502 1502 1502 1502 1502 1501 1501 1499 1497 1496 1494 1492 1490
1480 1480 1493 1478 1468 1466 1465 1464 1463 1464 1464 1466 1468 1470 1472 1473 1474 1476 1477 1479 1481 1483 1485 1488 1490 1492 1494 1495 1495 1496 1496 1496 1497 1497 1497 1497 1497 1496 1494 1492 1490 1488 1486 1485
1479 1482 1478 1471 1469 1472 1476 1476 1469 1468 1467 1467 1469 1470 1472 1473 1474 1476 1477 1477 1478 1480 1481 1483 1484 1486 1487 1489 1489 1490 1490 1491 1492 1493 1493 1493 1492 1491 1489 1487 1485 1483 1481 1479
1476 1482 1487 1475 1471 1472 1477 1485 1476 1474 1474 1473 1471 1473 1474 1475 1476 1475 1475 1475 1475 1476 1477 1478 1479 1480 1481 1482 1484 1484 1485 1486 1487 1487 1487 1487 1486 1485 1484 1482 1480 1478 1475 1474
1474 1477 1477 1475 1473 1475 1490 1494 1481 1477 1476 1475 1476 1477 1477 1475 1474 1474 1473 1473 1473 1473 1473 1474 1474 1475 1476 1477 1478 1480 1481 1482 1482 1481 1481 1480 1480 1479 1478 1476 1474 1472 1470 1468
1472 1483 1491 1479 1478 1484 1489 1484 1482 1480 1479 1478 1478 1477 1476 1475 1474 1473 1472 1471 1471 1470 1471 1470 1471 1471 1472 1473 1474 1476 1476 1476 1475 1475 1474 1473 1473 1472 1471 1470 1468 1466 1464 1462
1465 1473 1477 1478 1481 1484 1484 1484 1483 1482 1481 1480 1480 1480 1479 1478 1476 1475 1473 1471 1470 1469 1469 1469 1468 1468 1469 1469 1471 1471 1471 1470 1470 1469 1469 1468 1467 1466 1464 1463 1462 1460 1459 1457
1466 1473 1477 1480 1481 1483 1484 1484 1485 1484 1484 1483 1483 1483 1482 1481 1479 1477 1475 1474 1472 1471 1469 1468 1467 1467 1467 1467 1466 1466 1466 1465 1465 1464 1463 1461 1460 1459 1458 1457 1456 1455 1453 1451
1466 1474 1478 1483 1483 1484 1484 1485 1485 1486 1486 1486 1486 1486 1485 1484 1482 1481 1479 1477 1475 1473 1471 1469 1467 1466 1465 1464 1463 1463 1462 1461 1459 1458 1456 1455 1453 1452 1450 1449 1449 1448 1446 1444
1467 1472 1474 1482 1483 1484 1485 1486 1487 1488 1489 1489 1489 1488 1487 1486 1484 1483 1480 1478 1476 1474 1472 1470 1467 1465 1464 1462 1461 1459 1458 1456 1454 1452 1450 1447 1445 1444 1442 1441 1440 1439 1438 1437
1471 1474 1476 1481 1483 1485 1486 1488 1489 1490 1491 1491 1491 1490 1488 1487 1485 1483 1481 1478 1476 1474 1471 1469 1467 1464 1462 1460 1458 1455 1453 1451 1448 1446 1444 1441 1438 1436 1434 1433 1432 1431 1429 1428
1475 1478 1481 1484 1486 1487 1489 1490 1491 1492 1492 1492 1491 1490 1488 1487 1485 1482 1480 1478 1475 1473 1470 1468 1465 1462 1459 1456 1454 1451 1448 1445 1442 1439 1436 1434 1431 1429 1427 1425 1424 1422 1422 1420
1479 1481 1485 1487 1489 1490 1492 1492 1493 1493 1493 1492 1491 1489 1487 1485 1483 1481 1479 1476 1473 1471 1468 1466 1463 1460 1456 1453 1450 1447 1443 1440 1436 1432 1429 1426 1423 1421 1419 1417 1416 1415 1414 1413
1482 1485 1488 1490 1492 1493 1494 1494 1494 1493 1492 1491 1489 1488 1486 1483 1481 1479 1476 1474 1471 1468 1466 1463 1460 1456 1453 1450 1446 1442 1438 1434 1430 1426 1422 1419 1416 1413 1411 1410 1408 1407 1407 1406
1486 1489 1492 1493 1495 1495 1495 1494 1494 1493 1491 1490 1488 1486 1483 1481 1479 1476 1474 1471 1469 1466 1463 1460 1456 1453 1450 1446 1442 1437 1433 1428 1424 1419 1415 1411 1409 1406 1405 1403 1402 1401 1401 1400
1490 1493 1494 1495 1496 1495 1494 1494 1493 1492 1490 1488 1486 1483 1481 1479 1476 1474 1471 1468 1466 1463 1460 1456 1453 1449 1446 1442 1438 1433 1429 1423 1418 1414 1409 1405 1402 1399 1398 1397 1396 1395 1394 1394
1493 1494 1495 1495 1495 1494 1493 1492 1491 1489 1488 1485 1483 1481 1479 1476 1474 1471 1468 1465 1462 1458 1455 1453 1449 1446 1442 1438 1433 1429 1424 1419 1414 1408 1404 1400 1397 1394 1393 1391 1390 1390 1389 1388
1494 1494 1494 1494 1493 1493 1492 1490 1488 1487 1485 1482 1480 1478 1475 1473 1470 1467 1464 1461 1458 1454 1451 1448 1445 1441 1437 1433 1429 1425 1420 1415 1409 1404 1399 1395 1392 1390 1388 1387 1386 1385 1384 1383
1493 1493 1493 1492 1491 1490 1489 1487 1485 1483 1481 1479 1477 1474 1472 1469 1466 1463 1459 1456 1453 1450 1447 1444 1441 1437 1433 1428 1424 1420 1415 1410 1405 1400 1395 1391 1388 1385 1384 1383 1381 1380 1379 1378
1492 1492 1491 1490 1489 1487 1486 1484 1482 1480 1477 1475 1473 1470 1467 1464 1461 1458 1455 1452 1449 1445 1443 1440 1436 1432 1428 1423 1419 1415 1411 1406 1401 1396 1392 1388 1385 1382 1381 1380 1378 1377 1375 1374
1491 1490 1489 1487 1486 1484 1482 1480 1477 1475 1473 1471 1468 1465 1462 1460 1457 1454 1450 1447 1444 1441 1439 1435 1431 1427 1423 1419 1415 1411 1407 1402 1398 1393 1390 1387 1383 1380 1379 1377 1375 1374 1372 1371
1488 1487 1485 1484 1482 1480 1477 1475 1473 1470 1468 1465 1463 1460 1458 1455 1452 1450 1447 1443 1439 1437 1434 1430 1426 1422 1418 1415 1411 1407 1403 1399 1395 1391 1387 1384 1381 1379 1377 1375 1373 1371 1369 1368
1485 1483 1481 1479 1477 1474 1472 1470 1467 1465 1463 1460 1459 1456 1454 1452 1449 1446 1443 1440 1436 1432 1429 1425 1422 1418 1415 1412 1408 1404 1400 1397 1393 1389 1386 1382 1379 1377 1374 1372 1370 1368 1366 1364
1480 1478 1476 1474 1472 1470 1468 1465 1463 1461 1459 1457 1455 1453 1451 1449 1446 1443 1440 1436 1432 1429 1426 1423 1419 1416 1412 1409 1406 1402 1399 1395 1391 1387 1384 1381 1378 1375 1372 1370 1367 1365 1363 1361
1475 1473 1471 1469 1467 1466 1464 1462 1460 1458 1456 1454 1452 1450 1448 1445 1443 1439 1436 1433 1430 1427 1424 1421 1417 1414 1411 1408 1404 1401 1398 1394 1390 1386 1383 1379 1376 1373 1370 1367 1365 1363 1361 1359